User: anonymous
Location: Durham
(54.7770°N, 1.5720°W)
Time: 19:12:31
(UTC+01:00)
Language:

ISS - Orbit

View from above orbital plane
View from above orbital plane
View from above satellite
View from above satellite

Ground track
Ground track

The orbit data is extracted from the following two-line orbital elements,

1 25544U 98067A   14108.52391204  .00022406  00000-0  40042-3 0  1089
2 25544 051.6494 035.2597 0003542 300.2141 035.6567 15.49928675882069
Epoch (UTC): 18 April 2014 12:34:26
Eccentricity: 0.0003542
inclination: 51.6494°
perigee height: 414 km
apogee height: 419 km
right ascension of ascending node: 35.2597°
argument of perigee: 300.2141°
revolutions per day: 15.49928675
mean anomaly at epoch: 35.6567°
orbit number at epoch: 88206

The dashed part of the orbit path shows where the satellite is in the earth's shadow,  

DLR